Content
SEND FEEDBACK

Daily
Averages
Monthly
Summary
India

JAIPUR, INDIA


Home > Asia > India
Elevation: 1279 feet     Latitude: 26 49N     Longitude: 075 48E

WEATHER
 
SELECT A DAY
Number of Records: 102,058;   Date Range: 10/1/99 - 12/19/14
 
SHARE

PRINT THIS DATA

[ ← Previous Day ]
WEATHER ALMANAC - AUGUST 28, 2013
[ Next Day → ]
[ °C ]   °F
Weather ElementAverageHighLow
Temperature81 °F87 °F (2:30 pm)76 °F (5:30 am)
Dewpoint72 °F73.4 °F (12:30 am)71 °F (2:30 am)
Humidity72.6 %83 % (12:30 am)51 % (2:30 pm)
Barometer29.72 in29.80 in (9:00 am)29.61 in (2:30 am)
Wind Speed6.1 mph17.9 mph (5:30 pm)
Weather ElementAverage
Visibility2.5 mi
Wind DirectionWSW (250.3 °)

Weather ElementTotal
Precipitation---
Cooling Degree Days16.5 (Base 65)
Growing Degree Days31.5 (Base 50)
Averaged from 30 records on August 28, 2013
WEATHER CONDITIONS BREAKOUT
WIND DIRECTION BREAKOUT
WEATHER BY HOUR - AUGUST 28, 2013
[ °C ]   °F
Local TimeTemperatureDewpointHumidityBarometerVisibilityWind DirectionWind SpeedGust SpeedPrecipitationEventsConditions
12:30 AM78.8 °F73.4 °F83 %29.68 in2.5 miWNW (300°)3.5 mphHaze
1:00 AM78.8 °F73.4 °F83 %29.68 in2.5 miWNW (300°)4.6 mphHaze
2:00 AM78.8 °F71.6 °F78 %29.68 in2.5 miWNW (290°)3.5 mphHaze
2:30 AM78.0 °F71.0 °F74 %29.61 in2.0 miWNW (290°)8.9 mphHaze
3:00 AM77.0 °F71.6 °F83 %29.68 in2.5 miWNW (300°)3.5 mphHaze
4:00 AM77.0 °F71.6 °F83 %29.68 in2.5 miWNW (300°)5.8 mphHaze
5:30 AM77.0 °F71.6 °F83 %29.68 in2.5 miWNW (300°)4.6 mphHaze
5:30 AM76.0 °F71.0 °F79 %29.64 in2.0 miWNW (290°)8.9 mphHaze
6:00 AM77.0 °F71.6 °F83 %29.71 in2.5 miWNW (300°)4.6 mphHaze
7:00 AM77.0 °F71.6 °F83 %29.74 in2.5 miWNW (300°)4.6 mphHaze
8:00 AM78.8 °F71.6 °F78 %29.77 in2.5 miNW (310°)4.6 mphHaze
8:30 AM80.0 °F72.0 °F69 %29.70 in2.0 miWNW (290°)6.9 mphMist
9:00 AM80.6 °F73.4 °F79 %29.80 in2.5 miWNW (290°)5.8 mphMostly Cloudy
11:00 AM82.4 °F73.4 °F74 %29.80 in3.1 miWNW (300°)6.9 mphHaze
11:30 AM86.0 °F73.0 °F58 %29.71 in2.0 miWNW (290°)6.9 mphHaze
12:00 PM84.2 °F73.4 °F70 %29.77 in3.1 miWNW (300°)6.9 mphHaze
1:00 PM84.2 °F71.6 °F66 %29.77 in3.1 miWest (280°)8.1 mphHaze
2:00 PM86.0 °F71.6 °F62 %29.74 in3.1 miWest (280°)6.9 mphHaze
2:30 PM87.0 °F71.0 °F51 %29.66 in2.0 miWest (270°)11.5 mphHaze
3:00 PM86.0 °F73.4 °F66 %29.74 in3.1 miWest (270°)9.2 mphHaze
4:00 PM86.0 °F71.6 °F62 %29.71 in3.1 miWest (260°)8.1 mphHaze
5:00 PM86.0 °F71.6 °F62 %29.71 in3.1 miWNW (290°)8.1 mphHaze
5:30 PM86.0 °F71.0 °F51 %29.63 in2.0 miWNW (290°)17.9 mphHaze
6:00 PM84.2 °F71.6 °F66 %29.71 in2.5 miWest (280°)9.2 mphHaze
7:00 PM82.4 °F71.6 °F70 %29.74 in2.5 miWNW (290°)5.8 mphHaze
8:00 PM80.6 °F71.6 °F74 %29.74 in2.5 miVariable2.3 mphHaze
9:00 PM78.8 °F71.6 °F78 %29.77 in2.5 miCalmHaze
10:00 PM78.8 °F71.6 °F78 %29.77 in2.2 miCalmHaze
11:00 PM78.8 °F71.6 °F78 %29.80 in2.2 miVariable2.3 mphHaze
11:30 PM79.0 °F72.0 °F73 %29.70 in2.0 mi°4.5 mphHaze
Hourly data recorded from VIJP, located miles away from Jaipur, India







STORIES FROM OUR PARTNERS